{"data":{"norad_id":45744,"intl_designator":"2020-038Q","name":"STARLINK-1500","alt_names":[],"object_type":"PAYLOAD","status":"ACTIVE","operator":null,"country":"US","launch_date":"2020-06-13","launch_site_code":"AFETR","launch_vehicle":null,"mission":null,"orbit_class":"UNKNOWN","rcs_meters":null,"size_class":null,"mass_kg":null,"dimensions":null,"purposes":["comms"],"wikipedia_slug":null,"has_3d_model":false,"image_url":null,"decayed_at":null,"tle_current":{"epoch":"2026-09-19T23:24:07.960032Z","epoch_age_seconds":67358,"freshness":"FRESH","line1":"1 45744U 20038Q   26262.97509213  .00020977  00000+0  45938-3 0  9997","line2":"2 45744  53.0347 354.7496 0001882 121.2071 238.9119 15.44097304346743","mean_motion":15.44097304,"eccentricity":0.0001882,"inclination_deg":53.0347,"raan_deg":354.7496,"arg_perigee_deg":121.2071,"mean_anomaly_deg":238.9119,"bstar":0.00045938,"rev_number":34674,"period_min":93.258371494443,"perigee_km":432.74970761525,"apogee_km":435.31380793567,"semimajor_km":6812.1687577755,"source":"CELESTRAK","updated_at":"2026-09-20T09:00:38.456220Z"}}}